Theta_e
316 315 315 315 314 314 315 315 316 316 315 315 315 315 315 314 315 315 314 315 315 315 316 319 319 325 325 324 323 322 324 325 324 326 325 325 325 325 337 347 347 349 351 350
313 315 314 315 316 317 316 316 316 315 315 315 316 316 313 314 314 313 314 314 315 315 315 320 323 325 322 321 321 321 321 321 321 321 322 328 326 325 326 324 323 325 339 350
313 315 316 317 316 317 316 316 315 316 317 316 316 315 316 316 316 314 314 314 315 315 315 320 318 320 322 322 321 321 320 320 321 321 322 322 323 323 324 325 326 328 329 337
313 315 316 318 318 317 315 315 317 317 317 315 315 315 314 315 317 317 316 314 313 315 316 319 316 317 320 321 320 319 321 322 321 321 321 322 324 326 324 323 323 324 326 328
316 316 317 317 317 316 316 316 316 317 317 316 315 314 313 316 317 316 315 317 315 313 317 316 315 318 320 319 320 322 323 322 322 321 323 323 322 322 321 322 324 324 323 324
316 316 316 316 316 316 317 316 313 313 312 314 314 316 314 316 316 316 320 317 316 314 315 314 316 318 317 320 318 318 318 319 319 323 321 320 322 321 324 325 325 327 328 329
317 317 317 317 317 314 314 312 313 314 314 315 315 317 314 316 320 321 318 315 314 313 313 313 312 313 315 316 317 318 319 318 319 318 318 319 319 321 324 325 328 328 329 327
317 319 320 320 320 320 319 314 314 317 317 316 321 323 322 322 321 318 318 315 315 313 312 312 312 312 314 316 316 316 319 318 318 317 317 318 321 322 327 325 322 325 324 324
317 319 319 322 321 320 321 321 315 319 321 322 320 320 319 322 322 320 318 314 315 315 314 313 311 312 314 315 315 317 317 317 317 316 317 322 323 323 322 321 321 323 322 321
319 322 321 322 321 321 321 321 324 318 324 325 324 323 323 324 322 320 319 317 316 314 313 313 312 312 314 315 315 316 316 317 316 318 320 321 323 322 320 321 322 322 320 320
318 318 321 320 322 321 324 321 322 321 321 322 323 321 321 323 321 321 318 318 317 314 312 311 309 310 311 312 313 315 316 316 319 320 319 320 319 320 322 323 322 321 320 319
318 318 322 322 319 318 318 322 324 329 327 320 317 320 320 320 320 317 317 316 314 312 311 310 310 312 312 313 314 314 314 314 314 314 316 319 320 320 320 322 322 321 319 318
316 319 321 319 319 320 322 322 324 326 327 330 329 325 319 319 316 313 313 312 311 311 311 309 309 309 311 312 311 311 311 311 310 310 310 311 311 313 316 321 321 320 319 319
315 317 319 319 320 319 323 319 320 323 326 329 328 324 321 317 314 313 312 311 310 309 310 310 309 308 309 310 311 310 310 310 309 309 309 308 309 309 310 311 314 319 319 320
313 317 318 318 319 319 318 317 316 319 322 324 321 321 320 315 314 313 312 310 310 309 309 308 308 307 308 309 309 309 309 309 309 308 307 307 307 306 307 308 310 311 315 320
313 316 317 319 318 317 316 316 317 317 316 316 319 320 316 314 312 311 309 310 309 308 308 307 308 307 307 306 307 307 306 306 306 306 306 306 305 305 305 306 308 310 311 316
314 314 315 316 315 314 313 314 317 317 317 316 318 317 313 312 311 310 308 308 308 307 307 306 306 305 304 304 304 304 304 304 304 304 304 304 304 304 304 305 306 309 311 312
314 314 314 314 312 317 312 318 319 319 317 315 315 313 312 310 309 308 307 306 306 306 306 304 303 303 303 303 302 301 300 300 301 301 301 302 302 303 304 304 305 306 309 311
312 314 314 310 311 313 318 321 320 318 318 314 313 312 311 308 307 308 306 306 304 303 302 303 303 302 301 300 299 299 299 298 299 299 299 301 302 300 301 303 306 306 308 309
314 314 314 312 314 316 319 319 318 318 318 313 311 310 309 306 308 307 305 304 302 302 303 302 301 300 299 299 298 297 297 297 297 297 298 299 300 301 300 303 303 303 304 306
318 317 317 316 315 313 316 317 316 320 315 312 310 308 307 306 304 304 302 302 303 302 301 299 299 298 298 297 296 296 296 296 296 296 297 297 298 298 299 302 303 304 305 308
319 318 317 317 318 317 316 316 317 313 311 309 307 305 305 304 302 301 303 302 301 299 298 297 297 296 295 295 295 295 295 295 296 296 296 297 297 298 299 300 302 303 305 308
320 317 317 316 318 316 314 314 313 311 308 306 305 305 303 301 302 302 302 301 299 297 297 295 295 294 294 294 294 295 295 295 296 296 297 297 297 298 299 301 303 304 306 307
316 316 315 315 317 317 315 313 311 308 306 306 303 301 302 302 301 301 299 298 296 294 294 294 294 293 293 294 294 294 295 296 297 297 297 297 298 298 300 302 302 303 305 307
311 315 315 315 314 314 313 310 308 306 304 301 301 302 301 300 298 298 296 294 293 293 293 293 293 293 293 293 294 294 295 296 298 298 298 298 299 300 300 302 303 304 304 307
311 312 311 315 311 309 308 306 306 303 302 302 302 301 299 299 296 295 294 293 292 293 292 292 292 292 292 293 293 293 294 295 296 299 298 299 300 300 301 304 304 304 306 307
Wind_Speed
1 3 4 8 6 7 4 4 6 6 7 8 11 16 22 14 6 8 9 8 8 8 10 18 10 23 26 21 21 20 20 15 11 6 2 4 6 5 10 20 25 28 30 31
5 5 11 8 8 7 7 8 9 8 6 6 3 6 6 5 6 8 9 9 10 8 9 6 18 23 26 22 18 15 12 12 9 4 2 1 6 10 12 16 19 22 29 32
6 8 10 9 8 8 10 9 8 9 4 1 2 6 4 4 4 8 7 9 10 14 12 9 11 23 26 23 20 16 11 5 4 5 5 3 8 12 17 20 21 20 22 23
6 13 10 9 9 10 8 9 8 4 4 4 4 5 4 5 6 5 9 8 11 12 8 13 11 14 25 24 20 15 13 12 7 3 1 3 5 8 13 18 24 27 27 26
6 2 4 4 2 7 10 8 5 3 2 2 4 3 7 1 6 10 9 10 13 12 14 13 10 20 23 19 16 17 17 11 7 3 3 3 6 12 16 19 22 25 29 32
5 3 3 3 7 4 3 3 6 5 4 1 5 5 4 3 5 6 5 7 8 7 11 9 14 22 16 17 15 11 9 9 6 7 5 8 12 16 18 19 22 22 25 28
2 2 3 2 5 5 8 6 3 2 2 5 5 2 7 6 7 7 6 8 9 8 8 7 9 8 14 13 11 10 12 11 9 7 10 14 19 20 18 17 17 19 20 21
3 5 2 3 4 3 2 6 5 4 4 4 3 4 4 3 5 9 8 7 8 9 8 8 9 11 15 13 11 11 14 11 12 14 15 17 19 17 13 12 15 17 20 23
3 4 0 10 3 2 4 3 4 5 3 4 4 5 6 6 7 8 9 7 4 7 8 9 8 12 14 13 15 19 20 20 20 19 16 15 14 15 16 18 15 13 17 20
3 2 2 4 5 2 2 3 3 3 4 4 4 4 5 3 4 7 7 5 6 5 6 6 5 10 17 20 22 25 23 24 21 17 16 15 18 19 19 18 18 17 17 17
3 4 4 4 1 2 5 4 3 2 4 5 2 5 6 5 4 1 7 5 6 8 7 6 6 14 15 14 13 12 13 13 15 18 20 21 21 19 18 20 20 19 18 20
3 4 2 6 5 2 2 2 2 3 4 1 4 6 6 5 6 5 8 9 9 8 9 10 8 17 20 21 19 19 19 16 14 14 13 18 17 18 20 23 22 19 21 18
2 2 2 7 4 5 6 4 4 3 2 5 3 4 2 9 4 8 7 8 7 9 9 8 9 7 13 16 17 18 20 21 22 24 24 23 21 21 20 25 24 23 22 21
6 2 5 5 2 2 3 5 2 6 2 1 4 5 12 9 7 7 7 7 7 7 6 5 6 6 10 13 15 17 20 22 26 28 26 24 24 26 28 28 26 29 25 22
4 3 2 3 6 4 6 8 8 10 10 9 9 11 13 3 4 4 5 6 7 7 8 7 6 6 9 14 19 22 24 24 26 26 26 28 29 29 29 31 32 31 32 28
4 2 3 3 6 6 8 12 12 13 15 15 9 14 5 3 3 5 6 5 6 6 7 8 10 12 14 18 16 17 23 26 27 29 32 34 35 34 32 30 31 33 30 30
1 3 3 4 4 7 8 6 10 7 5 6 7 3 3 3 6 6 6 4 4 7 10 13 13 9 11 16 20 23 27 30 32 34 35 34 34 34 32 30 30 28 25 26
4 3 2 3 2 3 4 6 8 12 9 8 7 5 5 4 7 7 5 5 15 13 13 10 6 15 21 26 29 32 32 31 30 31 32 32 33 32 29 28 27 28 26 24
5 4 3 2 2 6 2 4 4 3 2 4 4 4 3 6 6 3 6 5 8 7 5 11 20 25 30 31 30 31 31 30 30 29 30 31 21 28 30 29 19 23 22 22
8 4 3 3 3 4 1 6 8 5 2 2 2 3 4 5 8 6 9 9 6 10 16 22 27 29 29 29 29 29 28 28 28 29 30 28 28 22 27 26 22 24 27 24
5 3 6 4 4 6 3 7 6 2 3 4 3 4 4 3 5 10 10 9 14 19 25 29 28 27 27 27 27 27 28 27 29 30 30 28 26 25 25 25 24 24 25 21
5 6 3 3 3 6 4 2 2 2 4 3 3 4 4 6 8 7 11 14 15 19 26 26 25 25 27 26 26 27 26 31 30 29 28 27 26 24 23 22 21 24 22 19
3 3 2 3 2 2 4 4 3 4 2 4 4 4 6 7 6 11 15 18 17 21 23 25 24 27 28 27 25 25 30 31 30 28 26 24 24 22 22 21 18 18 19 15
2 4 2 1 1 1 5 1 6 4 4 5 4 5 6 8 12 17 16 13 16 20 21 25 25 23 26 28 28 27 29 30 27 24 22 20 21 20 20 20 19 17 16 13
5 5 3 2 2 4 2 4 3 5 6 6 7 5 7 12 16 15 15 16 15 21 22 23 22 22 26 29 28 27 28 25 25 18 17 17 18 18 20 19 18 18 20 18
1 4 3 2 4 5 1 4 5 8 6 6 8 10 11 10 13 14 13 16 19 19 23 21 23 24 26 27 28 27 26 24 23 15 12 12 15 16 14 14 14 13 15 18
Wind_Direction
259 86 223 233 201 220 236 252 266 276 258 220 238 252 237 219 191 203 208 212 215 211 227 223 208 139 128 127 125 119 118 119 119 110 48 333 333 312 295 286 283 279 274 261
37 224 227 223 242 237 249 255 263 283 223 200 330 305 224 207 202 203 208 224 226 228 239 123 143 146 139 137 132 130 126 127 124 127 117 270 296 297 297 292 291 292 284 276
175 228 221 228 251 247 245 233 259 240 250 74 29 331 1 312 248 192 231 227 221 215 220 152 154 151 147 147 146 140 142 149 159 157 165 240 288 298 304 302 306 302 306 301
225 253 240 243 245 240 236 203 209 243 296 253 128 269 297 260 272 284 274 247 226 226 181 167 167 163 156 154 148 149 159 158 154 155 142 308 306 301 306 308 307 306 307 307
247 64 357 274 200 295 225 231 229 210 204 57 333 90 274 261 307 283 294 295 266 210 168 159 164 158 154 151 145 137 145 154 161 199 261 269 284 289 294 297 299 304 309 312
232 245 228 229 285 256 219 179 46 50 102 311 261 148 266 270 270 289 319 347 317 146 136 131 148 149 149 144 145 149 161 171 190 185 233 287 276 279 281 289 297 307 313 315
336 275 258 228 325 5 55 53 5 327 327 214 229 324 234 294 325 283 142 72 62 84 103 131 134 144 151 156 162 177 181 188 200 242 265 265 269 270 271 289 299 312 317 317
135 316 115 6 61 346 318 133 148 214 213 256 344 225 248 90 335 12 55 80 106 132 147 161 168 171 176 185 198 202 197 209 230 236 246 255 258 263 264 277 290 301 313 319
197 248 9 70 73 66 326 59 200 113 1 80 252 284 344 10 51 33 45 46 118 164 180 184 195 196 200 212 221 212 211 219 221 233 242 244 233 235 255 270 278 291 304 318
241 257 6 14 29 128 116 288 20 18 158 213 271 228 210 46 33 13 50 48 353 338 312 284 262 239 240 237 236 221 223 218 227 229 225 234 228 243 256 259 267 280 299 313
104 107 289 48 137 282 13 334 360 92 139 174 189 245 183 128 123 344 309 290 226 227 230 268 309 338 334 311 300 276 253 256 242 234 234 229 233 238 240 247 260 270 284 305
330 125 148 240 258 253 101 360 111 176 270 254 158 261 279 22 336 319 319 320 344 35 59 47 28 35 30 24 29 25 25 21 6 346 325 289 270 256 247 250 254 263 280 292
340 38 42 339 10 15 85 83 109 85 160 212 238 270 338 319 314 353 52 44 26 50 42 36 31 21 21 14 8 1 354 349 344 340 342 341 342 336 301 271 253 260 272 282
81 113 158 194 183 200 289 343 184 168 200 197 238 272 291 323 47 14 25 11 39 56 48 35 23 5 352 347 342 337 329 325 323 323 324 324 323 322 319 315 307 281 271 275
95 170 338 300 297 304 279 274 258 236 220 219 244 233 253 191 65 11 355 32 31 18 9 2 348 334 324 323 318 315 312 312 313 308 305 302 301 301 298 296 299 301 299 271
356 162 87 285 282 307 307 276 267 262 251 256 247 255 25 59 32 7 3 57 27 356 345 335 327 317 312 313 319 323 314 307 303 297 293 292 291 291 288 285 283 285 291 293
98 110 84 254 18 339 299 247 249 246 281 228 236 97 2 357 360 326 358 42 350 331 323 319 316 320 331 317 308 300 297 294 289 287 286 285 285 285 280 277 273 267 273 293
154 104 105 270 353 224 233 349 98 96 60 49 61 43 34 343 305 289 123 7 341 326 314 316 323 310 306 304 303 304 302 298 297 294 292 289 286 282 283 283 273 271 268 259
163 124 152 189 217 287 33 24 12 9 111 30 58 7 337 317 300 278 26 333 281 293 325 306 306 305 308 307 308 303 302 301 294 289 288 287 288 293 283 280 286 266 264 279
161 119 124 173 197 237 209 348 333 348 202 333 33 328 316 346 347 298 324 323 341 313 313 311 311 309 308 306 305 301 299 298 295 295 294 291 288 287 291 284 276 279 274 277
151 158 208 193 219 280 299 315 305 179 263 319 350 339 335 325 229 288 311 324 316 313 316 317 313 306 304 307 307 299 298 293 294 294 294 291 288 285 285 279 275 267 270 250
178 173 195 186 215 254 344 22 96 285 301 320 341 331 321 286 295 308 316 311 316 320 319 313 309 307 309 310 306 297 295 295 294 293 292 291 288 285 282 273 274 276 262 255
199 188 174 217 242 91 62 86 247 257 269 340 9 340 326 330 322 314 312 316 320 316 315 314 312 312 312 310 304 296 297 300 296 291 289 289 289 285 282 275 260 255 262 244
349 132 197 210 78 184 156 259 277 30 44 19 1 352 22 331 324 320 315 319 320 318 317 319 319 314 309 312 309 302 300 298 293 289 289 292 289 282 278 269 260 253 254 235
214 167 187 219 133 158 188 212 64 50 54 19 27 27 1 339 331 330 325 321 319 316 319 321 314 310 311 314 312 312 310 312 305 291 293 294 291 283 273 268 250 240 242 233
229 178 141 178 180 189 268 102 79 75 41 38 21 358 349 344 333 328 323 318 316 320 322 319 317 315 315 316 317 317 318 319 314 292 302 298 304 300 302 294 260 253 246 234